| time (UTC) | temp F | wind direction | speed knots | gust knots | rain 1hr in | rain 24hr in | rain mn in | humidity % | barometer mb |
| 20260905205947 | 67 | 241 | 4.3 | 8.7 | 0.00 | 0.00 | 0.12 | 67 | 1023.7 |
| 20260905203907 | 66 | 230 | 2.6 | 6.1 | 0.00 | 0.00 | 0.12 | 68 | 1023.5 |
| 20260905200809 | 66 | 234 | 2.6 | 6.1 | 0.00 | 0.00 | 0.12 | 66 | 1023.4 |
| 20260905192738 | 66 | 229 | 2.6 | 6.1 | 0.00 | 0.00 | 0.12 | 64 | 1022.9 |
| 20260905190718 | 65 | 222 | 1.7 | 2.6 | 0.00 | 0.00 | 0.12 | 61 | 1022.7 |
| 20260905185641 | 66 | 220 | 1.7 | 2.6 | 0.00 | 0.00 | 0.12 | 59 | 1022.6 |
| 20260905184619 | 68 | 217 | 1.7 | 6.1 | 0.00 | 0.00 | 0.12 | 54 | 1022.5 |
| 20260905181521 | 70 | 230 | 2.6 | 7.0 | 0.00 | 0.00 | 0.12 | 50 | 1021.9 |
| 20260905174438 | 72 | 233 | 3.5 | 7.0 | 0.00 | 0.00 | 0.12 | 47 | 1021.5 |
| 20260905173425 | 72 | 227 | 3.5 | 6.1 | 0.00 | 0.00 | 0.12 | 46 | 1021.4 |
| 20260905171411 | 73 | 239 | 3.5 | 7.0 | 0.00 | 0.00 | 0.12 | 46 | 1021.1 |
| 20260905170353 | 73 | 239 | 3.5 | 7.8 | 0.00 | 0.00 | 0.12 | 46 | 1020.7 |
| 20260905165350 | 73 | 257 | 4.3 | 9.6 | 0.00 | 0.00 | 0.12 | 45 | 1020.8 |
| 20260905164313 | 74 | 228 | 5.2 | 9.6 | 0.00 | 0.00 | 0.12 | 44 | 1021.1 |
| 20260905160154 | 76 | 247 | 7.0 | 15.6 | 0.00 | 0.00 | 0.12 | 42 | 1020.6 |
| 20260905153122 | 76 | 226 | 6.1 | 16.5 | 0.00 | 0.00 | 0.12 | 43 | 1020.4 |
| 20260905144022 | 77 | 235 | 7.8 | 13.9 | 0.00 | 0.00 | 0.12 | 41 | 1020.3 |
| 20260905135903 | 77 | 235 | 7.8 | 14.8 | 0.00 | 0.00 | 0.12 | 43 | 1020.3 |
| 20260905123703 | 75 | 246 | 5.2 | 13.9 | 0.00 | 0.00 | 0.12 | 50 | 1020.8 |
| 20260905122654 | 76 | 232 | 5.2 | 14.8 | 0.00 | 0.00 | 0.12 | 49 | 1020.5 |
| 20260905121618 | 75 | 226 | 6.1 | 13.9 | 0.00 | 0.00 | 0.12 | 51 | 1020.8 |
| 20260905115534 | 74 | 228 | 4.3 | 13.9 | 0.00 | 0.00 | 0.12 | 52 | 1020.7 |
| 20260905114514 | 73 | 224 | 3.5 | 12.2 | 0.00 | 0.00 | 0.12 | 56 | 1020.8 |
| 20260905113458 | 71 | 218 | 0.9 | 5.2 | 0.00 | 0.00 | 0.12 | 66 | 1020.9 |
| 20260905110427 | 72 | 242 | 7.0 | 12.2 | 0.00 | 0.00 | 0.12 | 66 | 1021.2 |
| 20260905104411 | 69 | 232 | 6.1 | 13.0 | 0.00 | 0.00 | 0.12 | 73 | 1021.0 |
| 20260905103406 | 69 | 244 | 5.2 | 12.2 | 0.00 | 0.00 | 0.12 | 72 | 1021.1 |
| 20260905101326 | 67 | 235 | 6.1 | 11.3 | 0.00 | 0.00 | 0.12 | 76 | 1021.6 |
| 20260905100250 | 67 | 244 | 7.0 | 13.9 | 0.00 | 0.00 | 0.12 | 77 | 1021.5 |
| 20260905095246 | 66 | 247 | 6.1 | 11.3 | 0.00 | 0.00 | 0.12 | 78 | 1021.5 |
| 20260905093225 | 64 | 241 | 6.1 | 12.2 | 0.00 | 0.00 | 0.12 | 81 | 1021.4 |
| 20260905091202 | 63 | 236 | 5.2 | 11.3 | 0.01 | 0.00 | 0.12 | 84 | 1021.6 |
| 20260905090158 | 62 | 236 | 3.5 | 8.7 | 0.02 | 0.00 | 0.12 | 85 | 1021.6 |
| 20260905083042 | 60 | 245 | 5.2 | 11.3 | 0.03 | 0.00 | 0.12 | 90 | 1021.5 |
| 20260905082039 | 60 | 242 | 7.8 | 13.0 | 0.04 | 0.00 | 0.12 | 90 | 1021.6 |
| 20260905081002 | 60 | 244 | 7.0 | 12.2 | 0.04 | 0.00 | 0.11 | 89 | 1021.6 |
| 20260905074937 | 60 | 242 | 7.8 | 13.9 | 0.03 | 0.00 | 0.10 | 88 | 1021.4 |
| 20260905072930 | 60 | 241 | 5.2 | 8.7 | 0.04 | 0.00 | 0.08 | 86 | 1021.5 |
| 20260905071922 | 60 | 230 | 3.5 | 7.0 | 0.04 | 0.00 | 0.07 | 86 | 1021.8 |
| 20260905070910 | 60 | 237 | 4.3 | 6.1 | 0.04 | 0.00 | 0.07 | 88 | 1021.9 |
| 20260905064831 | 60 | 209 | 0.9 | 2.6 | 0.07 | 0.00 | 0.07 | 87 | 1021.2 |
| 20260905063754 | 60 | 221 | 1.7 | 5.2 | 0.06 | 0.00 | 0.06 | 83 | 1020.8 |
| 20260905060711 | 61 | 203 | 0.0 | 0.9 | 0.03 | 0.00 | 0.03 | 81 | 1020.6 |
| 20260905054631 | 62 | 227 | 2.6 | 5.2 | 0.00 | 0.00 | 0.00 | 72 | 1020.9 |
| 20260905052603 | 64 | 227 | 2.6 | 7.8 | 0.00 | 0.00 | 0.00 | 65 | 1020.7 |
| 20260905044506 | 66 | 211 | 1.7 | 6.1 | 0.00 | 0.00 | 0.00 | 60 | 1019.1 |
| 20260905040347 | 68 | 196 | 0.9 | 6.1 | 0.00 | 0.00 | 0.00 | 56 | 1018.5 |
| 20260905034306 | 69 | 242 | 1.7 | 5.2 | 0.00 | 0.00 | 0.00 | 56 | 1018.2 |
| 20260905032226 | 69 | 200 | 0.9 | 3.5 | 0.00 | 0.00 | 0.00 | 57 | 1018.2 |
| 20260905031221 | 69 | 169 | 1.7 | 7.8 | 0.00 | 0.00 | 0.00 | 57 | 1017.7 |
| 20260905022135 | 73 | 211 | 4.3 | 14.8 | 0.00 | 0.00 | 0.00 | 58 | 1016.1 |
| 20260905020055 | 78 | 243 | 3.5 | 7.0 | 0.00 | 0.00 | 0.00 | 49 | 1014.7 |
| 20260905005931 | 73 | 235 | 2.6 | 3.5 | 0.00 | 0.00 | 0.00 | 57 | 1014.4 |
| 20260905004928 | 74 | 233 | 2.6 | 3.5 | 0.00 | 0.00 | 0.00 | 55 | 1014.4 |
| 20260905001811 | 76 | 232 | 3.5 | 5.2 | 0.00 | 0.00 | 0.00 | 50 | 1014.4 |
| 20260904231659 | 75 | 231 | 1.7 | 3.5 | 0.00 | 0.00 | 0.00 | 50 | 1014.0 |
| 20260904230643 | 74 | 227 | 1.7 | 2.6 | 0.00 | 0.00 | 0.00 | 51 | 1013.9 |
| 20260904223559 | 65 | 195 | 0.0 | 0.0 | 0.00 | 0.00 | 0.00 | 69 | 1013.9 |
| 20260904222523 | 64 | 207 | 0.0 | 1.7 | 0.00 | 0.00 | 0.00 | 71 | 1014.0 |
| 20260904215421 | 63 | 193 | 0.0 | 0.0 | 0.00 | 0.00 | 0.00 | 74 | 1013.7 |
| 20260904214403 | 62 | 202 | 0.0 | 0.0 | 0.00 | 0.00 | 0.00 | 75 | 1013.7 |